Home   Weather   Opole   Past weeks

Flag for Poland Past Weather in Opole, Poland — Yesterday and Last 2 Weeks

45 °F

Broken clouds.

Feels Like: 39 °F
Forecast: 39 / 51 °F
Wind: 12 mph from East

Location: Wroclaw Ii

Current Time: Oct 21, 2016 at 3:15:19 PM

Latest Report: Oct 21, 2016 at 2:30 PM

Visibility: 5 mi

Pressure: 29.92 "Hg

Humidity: 87%

Dew Point: 41 °F

Location of OpoleLocation

Past Weather in Opole — Graph


Opole Temperature Yesterday

Maximum temperature yesterday: 52 °F (at 1:00 PM)
Minimum temperature yesterday: 37 °F (at 11:30 PM)
Average temperature yesterday: 45 °F

High & Low Weather Summary for the Past Weeks

High59 °F (Oct 15, 2:00 PM)100% (Oct 6, 6:00 PM)30.39 "Hg (Oct 6, 6:00 PM)
Low28 °F (Oct 7, 7:30 AM)59% (Oct 14, 3:30 PM)29.92 "Hg (Oct 15, 8:00 AM)
Average45 °F89%30.11 "Hg
* Reported Oct 6 2:00 PM — Oct 21 2:00 PM, Opole, Weather by CustomWeather, © 2016

Note: Actual official high and low records may vary slightly from our data, if they occured in-between our weather recording intervals... More about our weather records


Opole Weather History for the Previous 24 Hours

Scroll right to see more
Time TempWeatherWind HumidityBarometerVisibility
2:00 PM
Fri, Oct 21
46 °FBroken clouds.9 mph87%29.95 "Hg4 mi
1:30 PM46 °FBroken clouds.9 mph87%29.95 "Hg4 mi
1:00 PM45 °FFog.13 mph93%29.95 "Hg3 mi
12:30 PM45 °FFog.12 mph100%29.95 "Hg3 mi
12:00 PM43 °FFog.12 mph93%29.95 "Hg2 mi
11:30 AM43 °FFog.9 mph100%29.95 "Hg3 mi
11:00 AM41 °FFog.12 mph100%29.95 "Hg3 mi
10:30 AM41 °FFog.12 mph93%29.95 "Hg3 mi
10:00 AM41 °FFog.12 mph93%29.95 "Hg1 mi
9:30 AM39 °FFog.14 mph100%29.95 "Hg1 mi
9:00 AM39 °FFog.10 mph93%29.95 "Hg0 mi
8:30 AM37 °FFog.9 mph100%29.95 "Hg0 mi
8:00 AM36 °FFog.6 mph100%29.95 "Hg0 mi
7:30 AM36 °FFog.8 mph100%29.92 "Hg0 mi
7:00 AM34 °FFog.7 mph100%29.92 "Hg0 mi
6:30 AM36 °FFog.6 mph93%29.92 "Hg1 mi
6:00 AM34 °FFog.5 mph100%29.92 "Hg1 mi
5:30 AM34 °FFog.6 mph100%29.92 "Hg1 mi
5:00 AM36 °FPassing clouds.2 mph93%29.92 "Hg0 mi
4:30 AM32 °FLight fog.6 mph100%29.92 "Hg0 mi
4:00 AM36 °FLight fog.5 mph100%29.92 "Hg0 mi
3:30 AM36 °FLight fog.3 mph93%29.92 "Hg0 mi
3:00 AM37 °FLight fog.3 mph100%29.92 "Hg0 mi
2:30 AM37 °FLight fog.5 mph93%29.95 "Hg1 mi
2:00 AM36 °FChilly.6 mph100%29.95 "Hg1 mi
1:30 AM37 °FSleet. Overcast.5 mph100%29.95 "Hg1 mi
1:00 AM37 °FFog.6 mph93%29.95 "Hg1 mi
12:30 AM39 °FChilly.3 mph100%29.95 "Hg2 mi
12:00 AM39 °FFog.5 mph93%29.95 "Hg3 mi
11:30 PM
Thu, Oct 20
37 °FChilly.8 mph93%29.95 "Hg5 mi
11:00 PM41 °FClear.6 mph93%29.95 "Hg5 mi
10:30 PM41 °FClear.3 mph100%29.95 "Hg10 mi
10:00 PM43 °FClear.8 mph93%29.95 "Hg10 mi
9:30 PM43 °FClear.9 mph93%29.95 "Hg10 mi
9:00 PM45 °FClear.8 mph93%29.95 "Hg10 mi
8:30 PM45 °FClear.8 mph93%29.95 "Hg10 mi
8:00 PM46 °FClear.9 mph87%29.95 "Hg10 mi
7:30 PM45 °FClear.9 mph100%29.95 "Hg10 mi
7:00 PM43 °FClear.6 mph93%29.95 "Hg10 mi
6:30 PM45 °FPassing clouds.6 mph93%29.98 "HgN/A
6:00 PM46 °FPassing clouds.7 mph87%29.98 "HgN/A
5:30 PM46 °FPassing clouds.8 mph87%29.98 "HgN/A
5:00 PM48 °FSunny.9 mph87%29.98 "Hg10 mi
4:30 PM48 °FSunny.12 mph82%29.98 "Hg10 mi
4:00 PM50 °FSunny.12 mph82%29.98 "Hg10 mi
3:30 PM50 °FPassing clouds.13 mph82%29.98 "HgN/A
3:00 PM50 °FPassing clouds.13 mph82%29.98 "HgN/A
Weather by CustomWeather, © 2016

See weather overviewHow to use our weather pages